| time (UTC) | temp C | wind direction | speed KPH | gust KPH | rain 1hr cm | rain 24hr cm | rain mn cm | humidity % | barometer mb |
| 20260502163038 | 24 | 150 | 4.8 | 16.1 | 0.00 | 0.00 | 0.00 | 12 | 1014.6 |
| 20260502161525 | 24 | 200 | 6.4 | 11.3 | 0.00 | 0.00 | 0.00 | 12 | 1014.6 |
| 20260502151632 | 21 | 354 | 1.6 | 6.4 | 0.00 | 0.00 | 0.00 | 15 | 1014.5 |
| 20260502123108 | 18 | 298 | 1.6 | 6.4 | 0.00 | 0.00 | 0.00 | 15 | 1013.0 |
| 20260502121600 | 18 | 267 | 1.6 | 11.3 | 0.00 | 0.00 | 0.00 | 15 | 1013.0 |
| 20260502114601 | 18 | 300 | 4.8 | 12.9 | 0.00 | 0.00 | 0.00 | 14 | 1012.9 |
| 20260502113104 | 18 | 275 | 0.0 | 6.4 | 0.00 | 0.00 | 0.00 | 14 | 1012.9 |
| 20260502111601 | 18 | 281 | 1.6 | 8.0 | 0.00 | 0.00 | 0.00 | 14 | 1012.8 |
| 20260502110056 | 18 | 283 | 0.0 | 4.8 | 0.00 | 0.00 | 0.00 | 14 | 1012.9 |
| 20260502104552 | 19 | 290 | 1.6 | 4.8 | 0.00 | 0.00 | 0.00 | 14 | 1012.9 |
| 20260502103101 | 20 | 309 | 0.0 | 9.7 | 0.00 | 0.00 | 0.00 | 13 | 1012.9 |
| 20260502101558 | 20 | 254 | 1.6 | 9.7 | 0.00 | 0.00 | 0.00 | 12 | 1012.9 |
| 20260502100108 | 20 | 263 | 3.2 | 9.7 | 0.00 | 0.00 | 0.00 | 12 | 1012.9 |
| 20260502071527 | 23 | 63 | 0.0 | 8.0 | 0.00 | 0.00 | 0.00 | 10 | 1013.0 |
| 20260502070024 | 23 | 277 | 0.0 | 6.4 | 0.00 | 0.00 | 0.00 | 10 | 1012.9 |
| 20260502064522 | 23 | 250 | 1.6 | 16.1 | 0.00 | 0.00 | 0.00 | 9 | 1012.8 |
| 20260502063122 | 22 | 302 | 1.6 | 4.8 | 0.00 | 0.00 | 0.00 | 11 | 1012.8 |
| 20260502061532 | 22 | 210 | 0.0 | 3.2 | 0.00 | 0.00 | 0.00 | 11 | 1012.8 |
| 20260502060022 | 22 | 354 | 0.0 | 0.0 | 0.00 | 0.00 | 0.00 | 11 | 1012.6 |
| 20260502054520 | 22 | 314 | 0.0 | 3.2 | 0.00 | 0.00 | 0.00 | 11 | 1012.6 |
| 20260502053019 | 22 | 334 | 0.0 | 4.8 | 0.00 | 0.00 | 0.00 | 10 | 1012.6 |
| 20260502051523 | 22 | 2 | 8.0 | 22.5 | 0.00 | 0.00 | 0.00 | 11 | 1012.3 |
| 20260502050018 | 22 | 295 | 1.6 | 6.4 | 0.00 | 0.00 | 0.00 | 12 | 1012.0 |
| 20260502044520 | 22 | 272 | 0.0 | 0.0 | 0.00 | 0.00 | 0.00 | 11 | 1011.9 |
| 20260502043021 | 22 | 342 | 0.0 | 0.0 | 0.00 | 0.00 | 0.00 | 11 | 1011.6 |
| 20260502041524 | 23 | 314 | 0.0 | 3.2 | 0.00 | 0.00 | 0.00 | 11 | 1011.4 |
| 20260502040016 | 24 | 312 | 1.6 | 9.7 | 0.00 | 0.00 | 0.00 | 10 | 1011.0 |
| 20260502034515 | 24 | 345 | 4.8 | 11.3 | 0.00 | 0.00 | 0.00 | 9 | 1010.9 |
| 20260502033023 | 24 | 327 | 3.2 | 12.9 | 0.00 | 0.00 | 0.00 | 9 | 1010.6 |
| 20260502031515 | 24 | 20 | 0.0 | 9.7 | 0.00 | 0.00 | 0.00 | 10 | 1010.4 |
| 20260502030013 | 25 | 357 | 3.2 | 8.0 | 0.00 | 0.00 | 0.00 | 10 | 1010.2 |
| 20260502024513 | 25 | 322 | 3.2 | 9.7 | 0.00 | 0.00 | 0.00 | 10 | 1010.0 |
| 20260502023013 | 25 | 315 | 0.0 | 4.8 | 0.00 | 0.00 | 0.00 | 10 | 1009.8 |
| 20260502021511 | 26 | 321 | 1.6 | 12.9 | 0.00 | 0.00 | 0.00 | 9 | 1009.6 |
| 20260502020011 | 27 | 293 | 3.2 | 12.9 | 0.00 | 0.00 | 0.00 | 9 | 1009.6 |
| 20260502014512 | 27 | 325 | 8.0 | 17.7 | 0.00 | 0.00 | 0.00 | 9 | 1009.4 |
| 20260502013012 | 27 | 345 | 11.3 | 22.5 | 0.00 | 0.00 | 0.00 | 8 | 1009.3 |
| 20260502011509 | 27 | 326 | 1.6 | 17.7 | 0.00 | 0.00 | 0.00 | 9 | 1009.3 |
| 20260502010009 | 27 | 314 | 6.4 | 17.7 | 0.00 | 0.00 | 0.00 | 9 | 1009.3 |
| 20260502004508 | 27 | 333 | 11.3 | 22.5 | 0.00 | 0.00 | 0.00 | 9 | 1009.2 |
| 20260502003007 | 27 | 295 | 12.9 | 29.0 | 0.00 | 0.00 | 0.00 | 10 | 1009.2 |
| 20260502001507 | 28 | 342 | 12.9 | 22.5 | 0.00 | 0.00 | 0.00 | 9 | 1009.2 |
| 20260502000004 | 27 | 293 | 11.3 | 25.7 | 0.00 | 0.00 | 0.00 | 10 | 1009.4 |
| 20260501234505 | 27 | 345 | 6.4 | 19.3 | 0.00 | 0.00 | 0.00 | 10 | 1009.2 |
| 20260501233003 | 28 | 333 | 0.0 | 16.1 | 0.00 | 0.00 | 0.00 | 9 | 1009.4 |
| 20260501231502 | 28 | 297 | 4.8 | 25.7 | 0.00 | 0.00 | 0.00 | 9 | 1009.5 |
| 20260501230002 | 28 | 357 | 11.3 | 19.3 | 0.00 | 0.00 | 0.00 | 9 | 1009.5 |
| 20260501224502 | 28 | 334 | 8.0 | 20.9 | 0.00 | 0.00 | 0.00 | 8 | 1009.8 |
| 20260501223110 | 28 | 247 | 9.7 | 22.5 | 0.00 | 0.00 | 0.00 | 10 | 1009.8 |
| 20260501221600 | 27 | 323 | 8.0 | 20.9 | 0.00 | 0.00 | 0.00 | 10 | 1010.2 |
| 20260501220059 | 27 | 311 | 8.0 | 25.7 | 0.00 | 0.00 | 0.00 | 10 | 1010.2 |
| 20260501214601 | 27 | 322 | 6.4 | 19.3 | 0.00 | 0.00 | 0.00 | 11 | 1010.4 |
| 20260501213100 | 27 | 6 | 1.6 | 8.0 | 0.00 | 0.00 | 0.00 | 11 | 1010.6 |
| 20260501211615 | 27 | 332 | 8.0 | 29.0 | 0.00 | 0.00 | 0.00 | 11 | 1011.0 |
| 20260501210054 | 27 | 319 | 12.9 | 27.4 | 0.00 | 0.00 | 0.00 | 11 | 1011.0 |
| 20260501204626 | 28 | 301 | 1.6 | 12.9 | 0.00 | 0.00 | 0.00 | 12 | 1011.2 |
| 20260501203054 | 27 | 348 | 6.4 | 20.9 | 0.00 | 0.00 | 0.00 | 12 | 1011.3 |
| 20260501201551 | 28 | 289 | 4.8 | 17.7 | 0.00 | 0.00 | 0.00 | 13 | 1011.2 |
| 20260501200049 | 27 | 54 | 1.6 | 9.7 | 0.00 | 0.00 | 0.00 | 12 | 1011.6 |
| 20260501194555 | 26 | 140 | 8.0 | 17.7 | 0.00 | 0.00 | 0.00 | 13 | 1011.7 |
| 20260501193047 | 26 | 122 | 4.8 | 17.7 | 0.00 | 0.00 | 0.00 | 13 | 1011.9 |
| 20260501191546 | 27 | 94 | 3.2 | 11.3 | 0.00 | 0.00 | 0.00 | 13 | 1011.9 |
| 20260501190045 | 27 | 147 | 0.0 | 14.5 | 0.00 | 0.00 | 0.00 | 12 | 1012.4 |
| 20260501184543 | 26 | 103 | 0.0 | 6.4 | 0.00 | 0.00 | 0.00 | 13 | 1012.5 |
| 20260501183043 | 26 | 1 | 3.2 | 6.4 | 0.00 | 0.00 | 0.00 | 13 | 1012.7 |
| 20260501181547 | 25 | 310 | 4.8 | 11.3 | 0.00 | 0.00 | 0.00 | 14 | 1012.7 |
| 20260501180039 | 25 | 298 | 3.2 | 14.5 | 0.00 | 0.00 | 0.00 | 14 | 1012.9 |
| 20260501174543 | 25 | 273 | 3.2 | 11.3 | 0.00 | 0.00 | 0.00 | 14 | 1012.9 |
| 20260501173040 | 25 | 112 | 1.6 | 9.7 | 0.00 | 0.00 | 0.00 | 14 | 1012.9 |
| 20260501171534 | 24 | 78 | 0.0 | 12.9 | 0.00 | 0.00 | 0.00 | 15 | 1012.9 |
| 20260501170039 | 24 | 1 | 4.8 | 14.5 | 0.00 | 0.00 | 0.00 | 16 | 1013.0 |
| 20260501164531 | 23 | 285 | 6.4 | 16.1 | 0.00 | 0.00 | 0.00 | 16 | 1013.1 |